This is the latest recevied weather packets stored in our database for station/object NR6G-15. If no packets are shown the sender has not sent any weather packets the latest 10 day(s).
| Time | Temp. | Humidity | Pressure | Rain* | Wind** | Luminosity | Snow |
|---|---|---|---|---|---|---|---|
| 1787945100 | 18.89° C | 63% | 1026.3 hPa | 0 mm | - | - | - |
| 1787944801 | 18.89° C | 62% | 1026.3 hPa | 0 mm | - | - | - |
| 1787944502 | 18.89° C | 62% | 1026.2 hPa | 0 mm | - | - | - |
| 1787944200 | 18.89° C | 62% | 1026.3 hPa | 0 mm | - | - | - |
| 1787943900 | 19.44° C | 62% | 1026.4 hPa | 0 mm | - | - | - |
| 1787943584 | 19.44° C | 62% | 1026.4 hPa | 0 mm | - | - | - |
| 1787943284 | 19.44° C | 60% | 1026.5 hPa | 0 mm | - | - | - |
| 1787942984 | 19.44° C | 61% | 1026.3 hPa | 0 mm | - | - | - |
| 1787942684 | 19.44° C | 59% | 1026.2 hPa | 0 mm | - | - | - |
| 1787942384 | 19.44° C | 61% | 1026.2 hPa | 0 mm | - | - | - |
| 1787942084 | 19.44° C | 61% | 1026.2 hPa | 0 mm | - | - | - |
| 1787941784 | 19.44° C | 59% | 1026.2 hPa | 0 mm | - | - | - |
| 1787941237 | 19.44° C | 61% | 1026.3 hPa | 0 mm | - | - | - |
| 1787940535 | 18.89° C | 64% | 1026.4 hPa | 0 mm | - | - | - |
| 1787940235 | 18.33° C | 66% | 1026.4 hPa | 0 mm | - | - | - |
| 1787939936 | 18.33° C | 65% | 1026.5 hPa | 0 mm | - | - | - |
| 1787939635 | 17.78° C | 65% | 1026.5 hPa | 0 mm | - | - | - |
| 1787939337 | 18.33° C | 67% | 1026.5 hPa | 0 mm | - | - | - |
| 1787939035 | 17.78° C | 67% | 1026.6 hPa | 0 mm | - | - | - |
| 1787938735 | 17.78° C | 68% | 1026.4 hPa | 0 mm | - | - | - |
| 1787938435 | 17.22° C | 70% | 1026.6 hPa | 0 mm | - | - | - |
| 1787938135 | 17.22° C | 69% | 1026.6 hPa | 0 mm | - | - | - |
| 1787937596 | 17.22° C | 68% | 1026.6 hPa | 0 mm | - | - | - |
| 1787937296 | 17.22° C | 67% | 1026.6 hPa | 0 mm | - | - | - |
| 1787936996 | 17.22° C | 66% | 1026.7 hPa | 0 mm | - | - | - |
* Rain latest hour (hover to see other rain measurements)
** Current wind speed in m/s (hover to see current wind gust speed)